Weather History for New Bedford, MA

Change the Weather History Date:

Monday, September 2, 2013

  Actual Average Record
Temperature  
Mean Temperature 74 °F -  
Max Temperature 79 °F 78 °F 94 °F (1969)
Min Temperature 71 °F 61 °F 44 °F (2007)
Cooling Degree Days 10    
Growing Degree Days 24 (Base 50)    
Moisture  
Dew Point 72 °F    
Average Humidity 97    
Maximum Humidity 100    
Minimum Humidity 84    
Precipitation  
Precipitation 0.13 in - - ()
Sea Level Pressure  
Sea Level Pressure 29.79 in    
Wind  
Wind Speed 6 mph (South)    
Max Wind Speed 12 mph    
Max Gust Speed -    
Visibility 3 miles    
Events Fog , Rain    
Averages and records for this station are not official NWS values.
T = Trace of Precipitation, MM = Missing Value Source: NWS Daily Summary

Daily Weather History Graph

Daily Weather History Graph

Search for Another Location

Airport:

Trip Planner

Search our weather history database for the weather conditions in past years. The results will help you decide how hot, cold, wet, or windy it might be!

Date:

Astronomy

Sep. 02, 2013 Rise Set
Actual Time 6:11 AM EDT 7:15 PM EDT
Civil Twilight 5:42 AM EDT 7:43 PM EDT
Nautical Twilight 5:08 AM EDT 8:17 PM EDT
Astronomical Twilight 4:32 AM EDT 8:52 PM EDT
Moon 3:23 AM EDT (9/2) 5:27 PM EDT (9/2)
Length of Visible Light 14h 00m
Length of Day
13h 04m
Waning Crescent, 8% of the Moon is Illuminated
Sep 2
Waning Crescent
Sep 5
New
Sep 12
First Quarter
Sep 19
Full
Sep 26
Last Quarter

Hourly Weather History & Observations

Time (EDT) Temp. Dew Point Humidity Pressure Visibility Wind Dir Wind Speed Gust Speed Precip Events Conditions
12:38 AM 73.4 °F 71.6 °F 94% 29.87 in 6.0 mi South 5.8 mph - N/A   Overcast
12:53 AM 73.0 °F 72.0 °F 96% 29.87 in 6.0 mi South 3.5 mph - N/A   Overcast
1:53 AM 72.0 °F 71.1 °F 97% 29.85 in 5.0 mi South 5.8 mph - N/A   Overcast
2:23 AM 71.6 °F 71.6 °F 100% 29.84 in 1.8 mi South 8.1 mph - N/A   Overcast
2:53 AM 72.0 °F 71.1 °F 97% 29.84 in 0.8 mi South 6.9 mph - N/A   Mist
3:02 AM 71.6 °F 71.6 °F 100% 29.84 in 1.0 mi SSW 5.8 mph - N/A   Mist
3:44 AM 71.6 °F 71.6 °F 100% 29.84 in 0.5 mi South 3.5 mph - N/A Fog Fog
3:53 AM 72.0 °F 72.0 °F 100% 29.83 in 0.5 mi SSE 5.8 mph - N/A Fog Fog
4:53 AM 72.0 °F 71.1 °F 97% 29.83 in 0.5 mi South 4.6 mph - N/A Fog Fog
5:53 AM 71.1 °F 71.1 °F 100% 29.84 in 0.8 mi South 4.6 mph - N/A   Mist
6:53 AM 71.1 °F 71.1 °F 100% 29.85 in 1.0 mi SE 6.9 mph - 0.01 in Rain Light Rain
7:53 AM 71.1 °F 71.1 °F 100% 29.84 in 3.0 mi SSE 6.9 mph - 0.05 in Rain Light Rain
8:24 AM 71.6 °F 71.6 °F 100% 29.84 in 1.8 mi South 8.1 mph - 0.00 in   Overcast
8:53 AM 72.0 °F 71.1 °F 97% 29.83 in 3.0 mi SSE 5.8 mph - 0.01 in Rain Light Rain
9:42 AM 71.6 °F 71.6 °F 100% 29.83 in 1.8 mi SSE 6.9 mph - 0.00 in   Overcast
9:53 AM 73.0 °F 72.0 °F 96% 29.83 in 1.0 mi South 6.9 mph - 0.00 in   Overcast
10:53 AM 73.9 °F 73.0 °F 97% 29.83 in 8.0 mi South 6.9 mph - N/A   Overcast
11:53 AM 77.0 °F 73.0 °F 88% 29.82 in 10.0 mi South 9.2 mph - N/A   Overcast
12:53 PM 78.1 °F 73.0 °F 84% 29.80 in 10.0 mi SSW 11.5 mph - N/A   Overcast
1:53 PM 78.1 °F 73.0 °F 84% 29.79 in 10.0 mi SSW 11.5 mph - 0.00 in   Overcast
2:53 PM 73.9 °F 71.1 °F 91% 29.79 in 4.0 mi SSW 9.2 mph - 0.03 in Rain Heavy Rain
3:00 PM 73.4 °F 71.6 °F 94% 29.79 in 7.0 mi SSW 10.4 mph - 0.00 in Rain Light Rain
3:15 PM 73.4 °F 71.6 °F 94% 29.78 in 4.0 mi South 8.1 mph - 0.02 in Rain Light Rain
3:53 PM 73.9 °F 72.0 °F 93% 29.77 in 10.0 mi SSE 9.2 mph - 0.03 in   Mostly Cloudy
4:53 PM 73.0 °F 72.0 °F 96% 29.76 in 7.0 mi South 8.1 mph - N/A   Overcast
5:13 PM 73.4 °F 71.6 °F 94% 29.76 in 4.0 mi South 8.1 mph - N/A   Overcast
5:46 PM 71.6 °F 71.6 °F 100% 29.75 in 1.8 mi South 5.8 mph - N/A   Overcast
5:53 PM 72.0 °F 71.1 °F 97% 29.74 in 0.5 mi SSW 5.8 mph - N/A Fog Fog
6:53 PM 72.0 °F 71.1 °F 97% 29.73 in 0.5 mi South 6.9 mph - N/A Fog Fog
7:00 PM 71.6 °F 71.6 °F 100% 29.74 in 1.0 mi SSW 5.8 mph - N/A   Overcast
7:10 PM 71.6 °F 71.6 °F 100% 29.74 in 0.5 mi SSW 6.9 mph - N/A Fog Fog
7:53 PM 72.0 °F 72.0 °F 100% 29.74 in 0.8 mi SSW 8.1 mph - N/A   Overcast
8:00 PM 71.6 °F 71.6 °F 100% 29.74 in 1.5 mi SSW 8.1 mph - N/A   Overcast
8:53 PM 72.0 °F 72.0 °F 100% 29.74 in 3.0 mi SSW 6.9 mph - N/A   Overcast
9:42 PM 71.6 °F 71.6 °F 100% 29.75 in 2.0 mi SSW 5.8 mph - N/A   Overcast
9:53 PM 72.0 °F 71.1 °F 97% 29.75 in 2.0 mi South 5.8 mph - N/A   Overcast
10:04 PM 71.6 °F 71.6 °F 100% 29.74 in 3.0 mi South 5.8 mph - N/A   Overcast
10:53 PM 72.0 °F 71.1 °F 97% 29.75 in 5.0 mi SW 3.5 mph - N/A   Overcast
11:44 PM 71.6 °F 71.6 °F 100% 29.75 in 2.5 mi SW 4.6 mph - N/A   Overcast
11:53 PM 72.0 °F 71.1 °F 97% 29.75 in 2.5 mi SW 3.5 mph - N/A   Overcast